Time,TemperatureF,DewpointF,PressureIn,WindDirection,WindDirectionDegrees,WindSpeedMPH,WindSpeedGustMPH,Humidity,HourlyPrecipIn,Conditions,Clouds,dailyrainin,SoftwareType,DateUTC
2013-01-29 00:00:00,37.2,17.8,29.78,WSW,239,4.0,4.0,45,0.00,,---,0.02,VWS V14.01,2013-01-29 07:00:00,
2013-01-29 00:01:00,37.2,17.8,29.78,SW,229,4.0,12.0,45,0.00,,---,0.00,VWS V14.01,2013-01-29 07:01:00,
2013-01-29 00:05:00,37.1,18.2,29.78,SSW,210,4.0,12.0,46,0.00,,---,0.00,VWS V14.01,2013-01-29 07:05:00,
2013-01-29 00:06:00,37.1,18.2,29.78,SW,227,3.0,5.0,46,0.00,,---,0.00,VWS V14.01,2013-01-29 07:06:00,
2013-01-29 00:10:00,37.1,18.2,29.78,South,180,2.0,7.0,46,0.00,,---,0.00,VWS V14.01,2013-01-29 07:10:00,
2013-01-29 00:11:00,37.0,18.2,29.79,WSW,248,3.0,6.0,46,0.00,,---,0.00,VWS V14.01,2013-01-29 07:11:00,
2013-01-29 00:15:00,36.9,18.1,29.79,SW,229,4.0,10.0,46,0.00,,---,0.00,VWS V14.01,2013-01-29 07:15:00,
2013-01-29 00:16:00,36.9,18.1,29.79,SSW,200,4.0,6.0,46,0.00,,---,0.00,VWS V14.01,2013-01-29 07:16:00,
2013-01-29 00:20:00,36.8,18.0,29.79,SW,225,3.0,6.0,46,0.00,,---,0.00,VWS V14.01,2013-01-29 07:20:00,
2013-01-29 00:21:00,36.7,17.9,29.79,SW,221,4.0,6.0,46,0.00,,---,0.00,VWS V14.01,2013-01-29 07:21:00,
2013-01-29 00:25:00,36.7,18.4,29.79,South,190,3.0,8.0,47,0.00,,---,0.00,VWS V14.01,2013-01-29 07:25:00,
2013-01-29 00:26:00,36.6,18.3,29.79,SSW,211,2.0,6.0,47,0.00,,---,0.00,VWS V14.01,2013-01-29 07:26:00,
2013-01-29 00:30:00,36.5,18.2,29.79,SSE,162,2.0,6.0,47,0.00,,---,0.00,VWS V14.01,2013-01-29 07:30:00,
2013-01-29 00:31:00,36.5,18.2,29.79,SW,219,5.0,8.0,47,0.00,,---,0.00,VWS V14.01,2013-01-29 07:31:00,
2013-01-29 00:35:00,36.4,18.6,29.79,SE,142,3.0,8.0,48,0.00,,---,0.00,VWS V14.01,2013-01-29 07:35:00,
2013-01-29 00:36:00,36.4,18.6,29.79,SW,226,4.0,5.0,48,0.00,,---,0.00,VWS V14.01,2013-01-29 07:36:00,
2013-01-29 00:40:00,36.3,18.5,29.79,South,182,5.0,7.0,48,0.00,,---,0.00,VWS V14.01,2013-01-29 07:40:00,
2013-01-29 00:41:00,36.3,18.5,29.79,SW,234,5.0,7.0,48,0.00,,---,0.00,VWS V14.01,2013-01-29 07:41:00,
2013-01-29 00:45:00,36.2,18.4,29.79,SW,220,2.0,7.0,48,0.00,,---,0.00,VWS V14.01,2013-01-29 07:45:00,
2013-01-29 00:46:00,36.2,18.9,29.79,SSW,196,2.0,6.0,49,0.00,,---,0.00,VWS V14.01,2013-01-29 07:46:00,
2013-01-29 00:50:00,36.1,18.8,29.79,WSW,246,3.0,7.0,49,0.00,,---,0.00,VWS V14.01,2013-01-29 07:50:00,
2013-01-29 00:51:00,36.1,18.8,29.79,WSW,246,2.0,7.0,49,0.00,,---,0.00,VWS V14.01,2013-01-29 07:51:00,
2013-01-29 00:55:00,36.1,18.8,29.79,SW,231,3.0,7.0,49,0.00,,---,0.00,VWS V14.01,2013-01-29 07:55:00,
2013-01-29 00:56:00,36.0,18.7,29.78,SW,236,5.0,8.0,49,0.00,,---,0.00,VWS V14.01,2013-01-29 07:56:00,
2013-01-29 01:00:00,35.9,19.1,29.78,SW,236,3.0,8.0,50,0.00,,---,0.00,VWS V14.01,2013-01-29 08:00:00,
2013-01-29 01:01:00,35.9,19.1,29.78,SW,222,5.0,8.0,50,0.00,,---,0.00,VWS V14.01,2013-01-29 08:01:00,
2013-01-29 01:06:00,35.7,18.9,29.78,SW,214,3.0,6.0,50,0.00,,---,0.00,VWS V14.01,2013-01-29 08:06:00,
2013-01-29 01:10:00,35.7,18.9,29.78,SSW,213,5.0,6.0,50,0.00,,---,0.00,VWS V14.01,2013-01-29 08:10:00,
2013-01-29 01:11:00,35.6,18.8,29.78,SSW,199,2.0,7.0,50,0.00,,---,0.00,VWS V14.01,2013-01-29 08:11:00,
2013-01-29 01:16:00,35.6,18.8,29.77,SSW,208,5.0,5.0,50,0.00,,---,0.00,VWS V14.01,2013-01-29 08:16:00,
2013-01-29 01:20:00,35.5,18.2,29.78,SSW,211,2.0,7.0,49,0.00,,---,0.00,VWS V14.01,2013-01-29 08:20:00,
2013-01-29 01:21:00,35.5,18.7,29.77,SSE,165,2.0,4.0,50,0.00,,---,0.00,VWS V14.01,2013-01-29 08:21:00,
2013-01-29 01:25:00,35.5,18.7,29.77,SW,220,3.0,7.0,50,0.00,,---,0.00,VWS V14.01,2013-01-29 08:25:00,
2013-01-29 01:26:00,35.4,18.6,29.77,SW,226,1.0,5.0,50,0.00,,---,0.00,VWS V14.01,2013-01-29 08:26:00,
2013-01-29 01:30:00,35.4,18.2,29.77,SW,221,2.0,5.0,49,0.00,,---,0.00,VWS V14.01,2013-01-29 08:30:00,
2013-01-29 01:31:00,35.3,18.5,29.76,South,175,4.0,5.0,50,0.00,,---,0.00,VWS V14.01,2013-01-29 08:31:00,
2013-01-29 01:35:00,35.3,18.5,29.76,South,181,2.0,5.0,50,0.00,,---,0.00,VWS V14.01,2013-01-29 08:35:00,
2013-01-29 01:36:00,35.3,18.1,29.75,South,180,3.0,3.0,49,0.00,,---,0.00,VWS V14.01,2013-01-29 08:36:00,
2013-01-29 01:40:00,35.3,18.5,29.75,SE,132,2.0,3.0,50,0.00,,---,0.00,VWS V14.01,2013-01-29 08:40:00,
2013-01-29 01:41:00,35.2,18.0,29.76,SSW,208,2.0,4.0,49,0.00,,---,0.00,VWS V14.01,2013-01-29 08:41:00,
2013-01-29 01:45:00,35.2,18.0,29.76,SW,225,3.0,6.0,49,0.00,,---,0.00,VWS V14.01,2013-01-29 08:45:00,
2013-01-29 01:46:00,35.2,18.0,29.76,SW,226,4.0,6.0,49,0.00,,---,0.00,VWS V14.01,2013-01-29 08:46:00,
2013-01-29 01:50:00,35.2,18.0,29.76,SSW,213,4.0,6.0,49,0.00,,---,0.00,VWS V14.01,2013-01-29 08:50:00,
2013-01-29 01:51:00,35.2,18.0,29.76,SW,228,2.0,5.0,49,0.00,,---,0.00,VWS V14.01,2013-01-29 08:51:00,
2013-01-29 01:55:00,35.2,18.0,29.76,SW,229,2.0,6.0,49,0.00,,---,0.00,VWS V14.01,2013-01-29 08:55:00,
2013-01-29 01:56:00,35.2,18.4,29.75,SSW,208,0.0,3.0,50,0.00,,---,0.00,VWS V14.01,2013-01-29 08:56:00,
2013-01-29 02:00:00,35.1,17.9,29.75,WSW,240,3.0,5.0,49,0.00,,---,0.00,VWS V14.01,2013-01-29 09:00:00,
2013-01-29 02:01:00,35.0,18.2,29.75,SW,231,3.0,5.0,50,0.00,,---,0.00,VWS V14.01,2013-01-29 09:01:00,
2013-01-29 02:05:00,35.0,18.2,29.75,SSW,205,6.0,6.0,50,0.00,,---,0.00,VWS V14.01,2013-01-29 09:05:00,
2013-01-29 02:06:00,34.9,18.2,29.75,SW,227,3.0,6.0,50,0.00,,---,0.00,VWS V14.01,2013-01-29 09:06:00,
2013-01-29 02:10:00,34.9,18.2,29.75,WSW,238,3.0,6.0,50,0.00,,---,0.00,VWS V14.01,2013-01-29 09:10:00,
2013-01-29 02:11:00,34.8,18.1,29.75,SW,229,2.0,6.0,50,0.00,,---,0.00,VWS V14.01,2013-01-29 09:11:00,
2013-01-29 02:15:00,34.8,18.1,29.75,SSW,197,3.0,7.0,50,0.00,,---,0.00,VWS V14.01,2013-01-29 09:15:00,
2013-01-29 02:16:00,34.7,18.4,29.75,SSW,206,1.0,5.0,51,0.00,,---,0.00,VWS V14.01,2013-01-29 09:16:00,
2013-01-29 02:20:00,34.7,18.4,29.75,SW,236,7.0,7.0,51,0.00,,---,0.00,VWS V14.01,2013-01-29 09:20:00,
2013-01-29 02:21:00,34.6,18.3,29.75,South,188,3.0,7.0,51,0.00,,---,0.00,VWS V14.01,2013-01-29 09:21:00,
2013-01-29 02:25:00,34.6,18.3,29.75,SW,218,2.0,7.0,51,0.00,,---,0.00,VWS V14.01,2013-01-29 09:25:00,
2013-01-29 02:26:00,34.6,18.3,29.74,SSE,150,4.0,6.0,51,0.00,,---,0.00,VWS V14.01,2013-01-29 09:26:00,
2013-01-29 02:30:00,34.6,18.3,29.74,WSW,244,2.0,7.0,51,0.00,,---,0.00,VWS V14.01,2013-01-29 09:30:00,
2013-01-29 02:31:00,34.5,18.2,29.74,SSW,202,5.0,6.0,51,0.00,,---,0.00,VWS V14.01,2013-01-29 09:31:00,
2013-01-29 02:35:00,34.5,18.2,29.74,SW,229,3.0,6.0,51,0.00,,---,0.00,VWS V14.01,2013-01-29 09:35:00,
2013-01-29 02:36:00,34.5,18.2,29.74,SSW,194,3.0,6.0,51,0.00,,---,0.00,VWS V14.01,2013-01-29 09:36:00,
2013-01-29 02:40:00,34.5,18.2,29.74,SSW,211,5.0,7.0,51,0.00,,---,0.00,VWS V14.01,2013-01-29 09:40:00,
2013-01-29 02:41:00,34.5,18.2,29.74,WSW,247,4.0,7.0,51,0.00,,---,0.00,VWS V14.01,2013-01-29 09:41:00,
2013-01-29 02:45:00,34.5,18.2,29.74,WSW,248,2.0,7.0,51,0.00,,---,0.00,VWS V14.01,2013-01-29 09:45:00,
2013-01-29 02:46:00,34.5,18.2,29.74,SSW,208,7.0,7.0,51,0.00,,---,0.00,VWS V14.01,2013-01-29 09:46:00,
2013-01-29 02:50:00,34.5,18.2,29.74,WSW,239,0.0,8.0,51,0.00,,---,0.00,VWS V14.01,2013-01-29 09:50:00,
2013-01-29 02:51:00,34.4,18.2,29.74,SW,224,2.0,4.0,51,0.00,,---,0.00,VWS V14.01,2013-01-29 09:51:00,
2013-01-29 02:55:00,34.4,18.2,29.74,WSW,250,3.0,13.0,51,0.00,,---,0.00,VWS V14.01,2013-01-29 09:55:00,
2013-01-29 02:56:00,34.4,17.7,29.74,SSW,204,2.0,7.0,50,0.00,,---,0.00,VWS V14.01,2013-01-29 09:56:00,
2013-01-29 03:00:00,34.4,18.2,29.74,SW,229,2.0,7.0,51,0.00,,---,0.00,VWS V14.01,2013-01-29 10:00:00,
2013-01-29 03:01:00,34.4,18.2,29.74,WSW,241,1.0,4.0,51,0.00,,---,0.00,VWS V14.01,2013-01-29 10:01:00,
2013-01-29 03:05:00,34.4,18.2,29.74,SSW,209,1.0,4.0,51,0.00,,---,0.00,VWS V14.01,2013-01-29 10:05:00,
2013-01-29 03:06:00,34.4,18.2,29.74,SW,229,3.0,4.0,51,0.00,,---,0.00,VWS V14.01,2013-01-29 10:06:00,
2013-01-29 03:10:00,34.3,18.1,29.74,South,185,4.0,7.0,51,0.00,,---,0.00,VWS V14.01,2013-01-29 10:10:00,
2013-01-29 03:11:00,34.3,17.6,29.74,SW,231,2.0,6.0,50,0.00,,---,0.00,VWS V14.01,2013-01-29 10:11:00,
2013-01-29 03:16:00,34.2,18.0,29.74,WSW,240,2.0,4.0,51,0.00,,---,0.00,VWS V14.01,2013-01-29 10:16:00,
2013-01-29 03:21:00,34.1,17.9,29.74,South,188,1.0,3.0,51,0.00,,---,0.00,VWS V14.01,2013-01-29 10:21:00,
2013-01-29 03:25:00,34.0,17.8,29.74,SW,229,5.0,7.0,51,0.00,,---,0.00,VWS V14.01,2013-01-29 10:25:00,
2013-01-29 03:26:00,34.0,17.8,29.74,WSW,244,3.0,6.0,51,0.00,,---,0.00,VWS V14.01,2013-01-29 10:26:00,
2013-01-29 03:30:00,34.1,17.9,29.74,SW,223,1.0,6.0,51,0.00,,---,0.00,VWS V14.01,2013-01-29 10:30:00,
2013-01-29 03:31:00,34.0,17.8,29.73,SSW,203,3.0,6.0,51,0.00,,---,0.00,VWS V14.01,2013-01-29 10:31:00,
2013-01-29 03:35:00,33.9,18.1,29.73,South,171,4.0,6.0,52,0.00,,---,0.00,VWS V14.01,2013-01-29 10:35:00,
2013-01-29 03:36:00,33.9,18.1,29.73,SSW,198,1.0,5.0,52,0.00,,---,0.00,VWS V14.01,2013-01-29 10:36:00,
2013-01-29 03:40:00,33.8,18.0,29.73,WSW,239,2.0,8.0,52,0.00,,---,0.00,VWS V14.01,2013-01-29 10:40:00,
2013-01-29 03:41:00,33.8,18.5,29.73,West,277,2.0,5.0,53,0.00,,---,0.00,VWS V14.01,2013-01-29 10:41:00,
2013-01-29 03:45:00,33.7,18.4,29.73,WSW,247,2.0,5.0,53,0.00,,---,0.00,VWS V14.01,2013-01-29 10:45:00,
2013-01-29 03:46:00,33.7,18.4,29.73,SSW,205,5.0,5.0,53,0.00,,---,0.00,VWS V14.01,2013-01-29 10:46:00,
2013-01-29 03:50:00,33.7,18.4,29.73,West,261,6.0,8.0,53,0.00,,---,0.00,VWS V14.01,2013-01-29 10:50:00,
2013-01-29 03:51:00,33.6,18.3,29.72,SW,219,6.0,6.0,53,0.00,,---,0.00,VWS V14.01,2013-01-29 10:51:00,
2013-01-29 03:55:00,33.6,18.3,29.72,South,191,6.0,7.0,53,0.00,,---,0.00,VWS V14.01,2013-01-29 10:55:00,
2013-01-29 03:56:00,33.5,18.2,29.72,SW,234,2.0,6.0,53,0.00,,---,0.00,VWS V14.01,2013-01-29 10:56:00,
2013-01-29 04:01:00,33.3,18.5,29.72,SSW,210,3.0,5.0,54,0.00,,---,0.00,VWS V14.01,2013-01-29 11:01:00,
2013-01-29 04:05:00,33.2,18.8,29.72,SW,223,2.0,5.0,55,0.00,,---,0.00,VWS V14.01,2013-01-29 11:05:00,
2013-01-29 04:06:00,33.2,18.8,29.72,SW,228,0.0,6.0,55,0.00,,---,0.00,VWS V14.01,2013-01-29 11:06:00,
2013-01-29 04:10:00,33.0,18.6,29.72,SW,223,3.0,6.0,55,0.00,,---,0.00,VWS V14.01,2013-01-29 11:10:00,
2013-01-29 04:11:00,33.0,18.6,29.72,WSW,244,0.0,3.0,55,0.00,,---,0.00,VWS V14.01,2013-01-29 11:11:00,
2013-01-29 04:15:00,33.0,19.0,29.71,SW,236,1.0,3.0,56,0.00,,---,0.00,VWS V14.01,2013-01-29 11:15:00,
2013-01-29 04:16:00,32.9,18.9,29.72,NW,315,1.0,3.0,56,0.00,,---,0.00,VWS V14.01,2013-01-29 11:16:00,
2013-01-29 04:21:00,32.9,19.4,29.71,NW,309,1.0,5.0,57,0.00,,---,0.00,VWS V14.01,2013-01-29 11:21:00,
2013-01-29 04:25:00,32.9,18.9,29.71,SW,230,0.0,6.0,56,0.00,,---,0.00,VWS V14.01,2013-01-29 11:25:00,
2013-01-29 04:26:00,33.0,19.4,29.71,West,278,4.0,5.0,57,0.00,,---,0.00,VWS V14.01,2013-01-29 11:26:00,
2013-01-29 04:30:00,33.0,19.4,29.71,SW,222,2.0,5.0,57,0.00,,---,0.00,VWS V14.01,2013-01-29 11:30:00,
2013-01-29 04:31:00,33.0,19.4,29.71,South,180,1.0,5.0,57,0.00,,---,0.00,VWS V14.01,2013-01-29 11:31:00,
2013-01-29 04:35:00,32.9,19.4,29.71,South,175,1.0,5.0,57,0.00,,---,0.00,VWS V14.01,2013-01-29 11:35:00,
2013-01-29 04:36:00,32.9,19.4,29.71,WSW,250,2.0,7.0,57,0.00,,---,0.00,VWS V14.01,2013-01-29 11:36:00,
2013-01-29 04:40:00,32.9,19.4,29.71,WSW,244,2.0,7.0,57,0.00,,---,0.00,VWS V14.01,2013-01-29 11:40:00,
2013-01-29 04:41:00,32.9,19.4,29.71,SSW,207,1.0,2.0,57,0.00,,---,0.00,VWS V14.01,2013-01-29 11:41:00,
2013-01-29 04:45:00,32.9,19.4,29.71,SW,235,4.0,4.0,57,0.00,,---,0.00,VWS V14.01,2013-01-29 11:45:00,
2013-01-29 04:46:00,32.9,19.4,29.70,SW,222,3.0,4.0,57,0.00,,---,0.00,VWS V14.01,2013-01-29 11:46:00,
2013-01-29 04:50:00,32.9,19.4,29.70,South,190,1.0,6.0,57,0.00,,---,0.00,VWS V14.01,2013-01-29 11:50:00,
2013-01-29 04:51:00,32.9,19.4,29.70,WSW,239,0.0,4.0,57,0.00,,---,0.00,VWS V14.01,2013-01-29 11:51:00,
2013-01-29 04:56:00,32.8,19.7,29.70,SW,215,2.0,4.0,58,0.00,,---,0.00,VWS V14.01,2013-01-29 11:56:00,
2013-01-29 05:00:00,32.7,19.6,29.70,SW,221,2.0,4.0,58,0.00,,---,0.00,VWS V14.01,2013-01-29 12:00:00,
2013-01-29 05:01:00,32.6,19.5,29.70,South,174,0.0,2.0,58,0.00,,---,0.00,VWS V14.01,2013-01-29 12:01:00,
2013-01-29 05:05:00,32.5,19.4,29.70,SW,226,4.0,4.0,58,0.00,,---,0.00,VWS V14.01,2013-01-29 12:05:00,
2013-01-29 05:06:00,32.5,19.4,29.70,SW,215,0.0,4.0,58,0.00,,---,0.00,VWS V14.01,2013-01-29 12:06:00,
2013-01-29 05:10:00,32.4,19.7,29.70,SW,221,1.0,4.0,59,0.00,,---,0.00,VWS V14.01,2013-01-29 12:10:00,
2013-01-29 05:11:00,32.3,19.6,29.70,South,188,2.0,5.0,59,0.00,,---,0.00,VWS V14.01,2013-01-29 12:11:00,
2013-01-29 05:15:00,32.2,19.5,29.70,South,181,2.0,5.0,59,0.00,,---,0.00,VWS V14.01,2013-01-29 12:15:00,
2013-01-29 05:16:00,32.1,19.4,29.70,SW,222,3.0,4.0,59,0.00,,---,0.00,VWS V14.01,2013-01-29 12:16:00,
2013-01-29 05:20:00,32.1,19.4,29.70,SW,223,2.0,5.0,59,0.00,,---,0.00,VWS V14.01,2013-01-29 12:20:00,
2013-01-29 05:21:00,32.1,19.4,29.70,SW,221,3.0,5.0,59,0.00,,---,0.00,VWS V14.01,2013-01-29 12:21:00,
2013-01-29 05:25:00,32.1,19.4,29.70,SSW,207,2.0,6.0,59,0.00,,---,0.00,VWS V14.01,2013-01-29 12:25:00,
2013-01-29 05:26:00,32.1,19.4,29.70,SW,232,2.0,6.0,59,0.00,,---,0.00,VWS V14.01,2013-01-29 12:26:00,
2013-01-29 05:30:00,32.1,19.0,29.70,WSW,251,4.0,7.0,58,0.00,,---,0.00,VWS V14.01,2013-01-29 12:30:00,
2013-01-29 05:31:00,32.1,19.0,29.70,SW,234,3.0,5.0,58,0.00,,---,0.00,VWS V14.01,2013-01-29 12:31:00,
2013-01-29 05:35:00,32.1,19.0,29.70,SW,217,3.0,7.0,58,0.00,,---,0.00,VWS V14.01,2013-01-29 12:35:00,
2013-01-29 05:36:00,32.1,19.0,29.70,SW,220,3.0,5.0,58,0.00,,---,0.00,VWS V14.01,2013-01-29 12:36:00,
2013-01-29 05:40:00,32.0,18.9,29.70,SW,225,1.0,6.0,58,0.00,,---,0.00,VWS V14.01,2013-01-29 12:40:00,
2013-01-29 05:41:00,32.0,18.9,29.70,SW,228,2.0,4.0,58,0.00,,---,0.00,VWS V14.01,2013-01-29 12:41:00,
2013-01-29 05:45:00,31.9,18.8,29.70,SSW,205,2.0,5.0,58,0.00,,---,0.00,VWS V14.01,2013-01-29 12:45:00,
2013-01-29 05:46:00,31.8,18.7,29.70,SSW,200,1.0,4.0,58,0.00,,---,0.00,VWS V14.01,2013-01-29 12:46:00,
2013-01-29 05:50:00,31.6,18.9,29.70,SSW,207,2.0,5.0,59,0.00,,---,0.00,VWS V14.01,2013-01-29 12:50:00,
2013-01-29 05:51:00,31.6,18.9,29.70,WSW,242,3.0,5.0,59,0.00,,---,0.00,VWS V14.01,2013-01-29 12:51:00,
2013-01-29 05:55:00,31.5,18.8,29.70,SSW,200,3.0,5.0,59,0.00,,---,0.00,VWS V14.01,2013-01-29 12:55:00,
2013-01-29 05:56:00,31.4,18.7,29.70,SW,217,1.0,3.0,59,0.00,,---,0.00,VWS V14.01,2013-01-29 12:56:00,
2013-01-29 06:00:00,31.1,18.9,29.70,SW,226,3.0,4.0,60,0.00,,---,0.00,VWS V14.01,2013-01-29 13:00:00,
2013-01-29 06:01:00,31.1,18.9,29.70,SW,229,2.0,3.0,60,0.00,,---,0.00,VWS V14.01,2013-01-29 13:01:00,
2013-01-29 06:05:00,31.0,18.8,29.70,WSW,244,3.0,6.0,60,0.00,,---,0.00,VWS V14.01,2013-01-29 13:05:00,
2013-01-29 06:06:00,31.0,18.8,29.70,SW,214,3.0,5.0,60,0.00,,---,0.00,VWS V14.01,2013-01-29 13:06:00,
2013-01-29 06:10:00,30.9,18.7,29.70,WSW,258,7.0,7.0,60,0.00,,---,0.00,VWS V14.01,2013-01-29 13:10:00,
2013-01-29 06:11:00,31.0,18.8,29.70,SSW,206,4.0,7.0,60,0.00,,---,0.00,VWS V14.01,2013-01-29 13:11:00,
2013-01-29 06:15:00,31.0,18.8,29.70,SW,222,3.0,7.0,60,0.00,,---,0.00,VWS V14.01,2013-01-29 13:15:00,
2013-01-29 06:16:00,31.0,18.8,29.70,SW,227,3.0,5.0,60,0.00,,---,0.00,VWS V14.01,2013-01-29 13:16:00,
2013-01-29 06:20:00,31.0,18.8,29.69,WSW,252,3.0,7.0,60,0.00,,---,0.00,VWS V14.01,2013-01-29 13:20:00,
2013-01-29 06:21:00,31.0,18.8,29.69,SW,233,6.0,8.0,60,0.00,,---,0.00,VWS V14.01,2013-01-29 13:21:00,
2013-01-29 06:25:00,31.0,18.8,29.69,SW,222,5.0,8.0,60,0.00,,---,0.00,VWS V14.01,2013-01-29 13:25:00,
2013-01-29 06:26:00,31.0,18.8,29.69,SW,227,4.0,6.0,60,0.00,,---,0.00,VWS V14.01,2013-01-29 13:26:00,
2013-01-29 06:30:00,31.0,19.1,29.69,SSW,196,7.0,7.0,61,0.00,,---,0.00,VWS V14.01,2013-01-29 13:30:00,
2013-01-29 06:31:00,31.1,19.2,29.69,SW,223,3.0,7.0,61,0.00,,---,0.00,VWS V14.01,2013-01-29 13:31:00,
2013-01-29 06:35:00,31.0,19.1,29.69,SSW,211,7.0,10.0,61,0.00,,---,0.00,VWS V14.01,2013-01-29 13:35:00,
2013-01-29 06:36:00,31.1,19.2,29.69,SW,223,3.0,8.0,61,0.00,,---,0.00,VWS V14.01,2013-01-29 13:36:00,
2013-01-29 06:40:00,31.0,19.1,29.69,SW,219,6.0,8.0,61,0.00,,---,0.00,VWS V14.01,2013-01-29 13:40:00,
2013-01-29 06:41:00,30.9,19.0,29.69,WSW,252,4.0,6.0,61,0.00,,---,0.00,VWS V14.01,2013-01-29 13:41:00,
2013-01-29 06:45:00,30.8,19.0,29.69,WSW,255,5.0,7.0,61,0.00,,---,0.00,VWS V14.01,2013-01-29 13:45:00,
2013-01-29 06:46:00,30.8,19.0,29.69,SW,221,5.0,5.0,61,0.00,,---,0.00,VWS V14.01,2013-01-29 13:46:00,
2013-01-29 06:50:00,30.7,19.2,29.69,WSW,240,4.0,6.0,62,0.00,,---,0.00,VWS V14.01,2013-01-29 13:50:00,
2013-01-29 06:51:00,30.7,19.2,29.69,WSW,242,5.0,7.0,62,0.00,,---,0.00,VWS V14.01,2013-01-29 13:51:00,
2013-01-29 06:55:00,30.7,19.6,29.70,SW,227,9.0,9.0,63,0.00,,---,0.00,VWS V14.01,2013-01-29 13:55:00,
2013-01-29 06:56:00,30.7,19.6,29.70,SW,218,3.0,10.0,63,0.00,,---,0.00,VWS V14.01,2013-01-29 13:56:00,
2013-01-29 07:00:00,30.6,19.9,29.70,West,265,2.0,10.0,64,0.00,,---,0.00,VWS V14.01,2013-01-29 14:00:00,
2013-01-29 07:01:00,30.5,19.8,29.70,WSW,246,3.0,4.0,64,0.00,,---,0.00,VWS V14.01,2013-01-29 14:01:00,
2013-01-29 07:05:00,30.4,20.1,29.70,WSW,244,4.0,4.0,65,0.00,,---,0.00,VWS V14.01,2013-01-29 14:05:00,
2013-01-29 07:06:00,30.4,20.1,29.70,West,269,2.0,7.0,65,0.00,,---,0.00,VWS V14.01,2013-01-29 14:06:00,
2013-01-29 07:10:00,30.5,20.5,29.70,WSW,238,1.0,7.0,66,0.00,,---,0.00,VWS V14.01,2013-01-29 14:10:00,
2013-01-29 07:11:00,30.5,20.5,29.70,SW,222,2.0,3.0,66,0.00,,---,0.00,VWS V14.01,2013-01-29 14:11:00,
2013-01-29 07:15:00,30.5,20.9,29.70,WSW,242,2.0,5.0,67,0.00,,---,0.00,VWS V14.01,2013-01-29 14:15:00,
2013-01-29 07:16:00,30.5,20.9,29.70,WSW,252,2.0,3.0,67,0.00,,---,0.00,VWS V14.01,2013-01-29 14:16:00,
2013-01-29 07:20:00,30.5,20.9,29.71,SW,234,3.0,5.0,67,0.00,,---,0.00,VWS V14.01,2013-01-29 14:20:00,
2013-01-29 07:21:00,30.6,21.0,29.71,SW,217,3.0,5.0,67,0.00,,---,0.00,VWS V14.01,2013-01-29 14:21:00,
2013-01-29 07:25:00,30.6,21.0,29.71,WSW,244,4.0,5.0,67,0.00,,---,0.00,VWS V14.01,2013-01-29 14:25:00,
2013-01-29 07:26:00,30.6,21.3,29.70,SSW,206,4.0,5.0,68,0.00,,---,0.00,VWS V14.01,2013-01-29 14:26:00,
2013-01-29 07:30:00,30.6,21.6,29.71,WNW,296,1.0,5.0,69,0.00,,---,0.00,VWS V14.01,2013-01-29 14:30:00,
2013-01-29 07:31:00,30.6,21.3,29.71,West,273,1.0,2.0,68,0.00,,---,0.00,VWS V14.01,2013-01-29 14:31:00,
2013-01-29 07:35:00,30.6,21.3,29.71,SW,223,0.0,4.0,68,0.00,,---,0.00,VWS V14.01,2013-01-29 14:35:00,
2013-01-29 07:36:00,30.5,21.6,29.71,SW,223,0.0,1.0,69,0.00,,---,0.00,VWS V14.01,2013-01-29 14:36:00,
2013-01-29 07:41:00,30.5,21.6,29.71,SW,235,1.0,1.0,69,0.00,,---,0.00,VWS V14.01,2013-01-29 14:41:00,
2013-01-29 07:45:00,30.5,21.6,29.71,WSW,242,0.0,2.0,69,0.00,,---,0.00,VWS V14.01,2013-01-29 14:45:00,
2013-01-29 07:46:00,30.5,21.6,29.71,WSW,242,2.0,2.0,69,0.00,,---,0.00,VWS V14.01,2013-01-29 14:46:00,
2013-01-29 07:50:00,30.6,22.0,29.72,WSW,242,1.0,2.0,70,0.00,,---,0.00,VWS V14.01,2013-01-29 14:50:00,
2013-01-29 07:51:00,30.6,22.0,29.72,SW,229,1.0,2.0,70,0.00,,---,0.00,VWS V14.01,2013-01-29 14:51:00,
2013-01-29 07:55:00,30.7,22.1,29.72,SW,225,0.0,4.0,70,0.00,,---,0.00,VWS V14.01,2013-01-29 14:55:00,
2013-01-29 07:56:00,30.7,22.1,29.72,WSW,248,3.0,5.0,70,0.00,,---,0.00,VWS V14.01,2013-01-29 14:56:00,
2013-01-29 08:00:00,30.3,21.7,29.72,South,181,3.0,3.0,70,0.00,,---,0.00,VWS V14.01,2013-01-29 15:00:00,
2013-01-29 08:05:00,30.3,22.0,29.73,South,182,1.0,4.0,71,0.00,,---,0.00,VWS V14.01,2013-01-29 15:05:00,
2013-01-29 08:10:00,30.4,22.1,29.73,SW,219,2.0,2.0,71,0.00,,---,0.00,VWS V14.01,2013-01-29 15:10:00,
2013-01-29 08:15:00,30.5,22.2,29.73,SSW,198,2.0,6.0,71,0.00,,---,0.00,VWS V14.01,2013-01-29 15:15:00,
2013-01-29 08:20:00,30.5,22.2,29.73,SW,229,0.0,3.0,71,0.00,,---,0.00,VWS V14.01,2013-01-29 15:20:00,
2013-01-29 08:25:00,30.6,22.3,29.73,WSW,240,2.0,4.0,71,0.00,,---,0.00,VWS V14.01,2013-01-29 15:25:00,
2013-01-29 08:30:00,30.6,22.3,29.73,SW,220,3.0,4.0,71,0.00,,---,0.00,VWS V14.01,2013-01-29 15:30:00,
2013-01-29 08:31:00,30.6,22.3,29.73,SSW,211,2.0,3.0,71,0.00,,---,0.00,VWS V14.01,2013-01-29 15:31:00,
2013-01-29 08:35:00,30.6,22.3,29.73,SW,217,2.0,4.0,71,0.00,,---,0.00,VWS V14.01,2013-01-29 15:35:00,
2013-01-29 08:36:00,30.7,22.4,29.73,SW,223,2.0,3.0,71,0.00,,---,0.00,VWS V14.01,2013-01-29 15:36:00,
2013-01-29 08:40:00,30.8,22.2,29.73,SW,218,2.0,4.0,70,0.00,,---,0.00,VWS V14.01,2013-01-29 15:40:00,
2013-01-29 08:41:00,30.8,22.2,29.73,SW,231,1.0,2.0,70,0.00,,---,0.00,VWS V14.01,2013-01-29 15:41:00,
2013-01-29 08:45:00,31.0,22.4,29.73,WSW,248,2.0,3.0,70,0.00,,---,0.00,VWS V14.01,2013-01-29 15:45:00,
2013-01-29 08:46:00,31.1,22.1,29.73,WSW,248,1.0,2.0,69,0.00,,---,0.00,VWS V14.01,2013-01-29 15:46:00,
2013-01-29 08:50:00,31.2,21.9,29.73,WSW,239,2.0,4.0,68,0.00,,---,0.00,VWS V14.01,2013-01-29 15:50:00,
2013-01-29 08:51:00,31.3,22.0,29.73,WSW,250,3.0,4.0,68,0.00,,---,0.00,VWS V14.01,2013-01-29 15:51:00,
2013-01-29 08:55:00,31.5,22.2,29.73,NW,309,2.0,4.0,68,0.00,,---,0.00,VWS V14.01,2013-01-29 15:55:00,
2013-01-29 08:56:00,31.6,21.9,29.73,NW,314,1.0,3.0,67,0.00,,---,0.00,VWS V14.01,2013-01-29 15:56:00,
2013-01-29 09:00:00,31.7,21.7,29.74,WNW,283,1.0,3.0,66,0.00,,---,0.00,VWS V14.01,2013-01-29 16:00:00,
2013-01-29 09:01:00,31.8,21.8,29.74,WSW,243,0.0,4.0,66,0.00,,---,0.00,VWS V14.01,2013-01-29 16:01:00,
2013-01-29 09:05:00,31.8,21.4,29.74,West,260,1.0,6.0,65,0.00,,---,0.00,VWS V14.01,2013-01-29 16:05:00,
2013-01-29 09:06:00,31.9,21.5,29.74,West,265,0.0,1.0,65,0.00,,---,0.00,VWS V14.01,2013-01-29 16:06:00,
2013-01-29 09:10:00,32.0,21.6,29.74,WNW,283,1.0,2.0,65,0.00,,---,0.00,VWS V14.01,2013-01-29 16:10:00,
2013-01-29 09:11:00,32.1,20.9,29.74,SW,221,0.0,2.0,63,0.00,,---,0.00,VWS V14.01,2013-01-29 16:11:00,
2013-01-29 09:15:00,32.2,21.4,29.74,West,259,0.0,4.0,64,0.00,,---,0.00,VWS V14.01,2013-01-29 16:15:00,
2013-01-29 09:16:00,32.2,21.4,29.74,WSW,255,1.0,4.0,64,0.00,,---,0.00,VWS V14.01,2013-01-29 16:16:00,
2013-01-29 09:20:00,32.3,20.4,29.74,West,265,0.0,2.0,61,0.00,,---,0.00,VWS V14.01,2013-01-29 16:20:00,
2013-01-29 09:25:00,32.4,19.7,29.74,West,280,0.0,3.0,59,0.00,,---,0.00,VWS V14.01,2013-01-29 16:25:00,
2013-01-29 09:26:00,32.5,19.8,29.74,WNW,301,2.0,4.0,59,0.00,,---,0.00,VWS V14.01,2013-01-29 16:26:00,
2013-01-29 09:30:00,32.6,19.5,29.74,NW,310,1.0,3.0,58,0.00,,---,0.00,VWS V14.01,2013-01-29 16:30:00,
2013-01-29 09:35:00,32.7,18.8,29.74,WNW,290,5.0,6.0,56,0.00,,---,0.00,VWS V14.01,2013-01-29 16:35:00,
2013-01-29 09:40:00,32.6,17.4,29.74,West,272,2.0,7.0,53,0.00,,---,0.00,VWS V14.01,2013-01-29 16:40:00,
2013-01-29 09:45:00,32.7,17.5,29.74,NW,309,4.0,7.0,53,0.00,,---,0.00,VWS V14.01,2013-01-29 16:45:00,
2013-01-29 09:46:00,32.8,17.1,29.74,NW,304,3.0,6.0,52,0.00,,---,0.00,VWS V14.01,2013-01-29 16:46:00,
2013-01-29 09:50:00,32.6,16.5,29.74,NW,305,4.0,6.0,51,0.00,,---,0.00,VWS V14.01,2013-01-29 16:50:00,
2013-01-29 09:51:00,32.5,16.4,29.74,WNW,291,2.0,9.0,51,0.00,,---,0.00,VWS V14.01,2013-01-29 16:51:00,
2013-01-29 09:55:00,32.5,16.4,29.74,NW,304,5.0,9.0,51,0.00,,---,0.00,VWS V14.01,2013-01-29 16:55:00,
2013-01-29 10:00:00,32.6,15.1,29.74,NNW,342,2.0,6.0,48,0.00,,---,0.00,VWS V14.01,2013-01-29 17:00:00,
2013-01-29 10:05:00,33.1,14.6,29.74,NW,320,2.0,4.0,46,0.00,,---,0.00,VWS V14.01,2013-01-29 17:05:00,
2013-01-29 10:10:00,33.5,14.4,29.74,WNW,302,3.0,4.0,45,0.00,,---,0.00,VWS V14.01,2013-01-29 17:10:00,
2013-01-29 10:15:00,33.2,13.7,29.74,NNW,328,7.0,7.0,44,0.00,,---,0.00,VWS V14.01,2013-01-29 17:15:00,
2013-01-29 10:20:00,32.5,13.5,29.74,WNW,303,4.0,9.0,45,0.00,,---,0.00,VWS V14.01,2013-01-29 17:20:00,
2013-01-29 10:25:00,33.7,14.6,29.74,NW,304,3.0,5.0,45,0.00,,---,0.00,VWS V14.01,2013-01-29 17:25:00,
2013-01-29 10:30:00,34.1,13.4,29.74,WNW,291,4.0,7.0,42,0.00,,---,0.00,VWS V14.01,2013-01-29 17:30:00,
2013-01-29 10:35:00,33.3,13.8,29.74,WSW,257,2.0,4.0,44,0.00,,---,0.00,VWS V14.01,2013-01-29 17:35:00,
2013-01-29 10:40:00,33.0,15.5,29.74,NW,318,4.0,7.0,48,0.00,,---,0.00,VWS V14.01,2013-01-29 17:40:00,
2013-01-29 10:45:00,32.9,14.9,29.75,North,349,6.0,7.0,47,0.00,,---,0.00,VWS V14.01,2013-01-29 17:45:00,
2013-01-29 10:50:00,33.1,14.6,29.75,NNW,328,8.0,9.0,46,0.00,,---,0.00,VWS V14.01,2013-01-29 17:50:00,
2013-01-29 10:55:00,33.0,14.5,29.75,WNW,303,4.0,7.0,46,0.00,,---,0.00,VWS V14.01,2013-01-29 17:55:00,
2013-01-29 11:00:00,33.0,15.0,29.75,NNE,19,5.0,9.0,47,0.00,,---,0.00,VWS V14.01,2013-01-29 18:00:00,
2013-01-29 11:05:00,32.8,14.3,29.75,WNW,297,5.0,6.0,46,0.00,,---,0.00,VWS V14.01,2013-01-29 18:05:00,
2013-01-29 11:10:00,33.5,19.1,29.75,North,355,6.0,10.0,55,0.00,,---,0.00,VWS V14.01,2013-01-29 18:10:00,
2013-01-29 11:15:00,33.2,18.4,29.75,NNW,340,7.0,12.0,54,0.00,,---,0.00,VWS V14.01,2013-01-29 18:15:00,
2013-01-29 11:20:00,32.5,18.6,29.75,North,355,6.0,10.0,56,0.00,,---,0.00,VWS V14.01,2013-01-29 18:20:00,
2013-01-29 11:25:00,32.1,18.2,29.75,North,355,12.0,12.0,56,0.00,,---,0.00,VWS V14.01,2013-01-29 18:25:00,
2013-01-29 11:30:00,32.5,16.4,29.75,NW,321,6.0,7.0,51,0.00,,---,0.00,VWS V14.01,2013-01-29 18:30:00,
2013-01-29 11:35:00,32.8,15.8,29.75,WNW,296,2.0,6.0,49,0.00,,---,0.00,VWS V14.01,2013-01-29 18:35:00,
2013-01-29 11:40:00,33.3,16.7,29.76,WNW,302,7.0,9.0,50,0.00,,---,0.00,VWS V14.01,2013-01-29 18:40:00,
2013-01-29 11:45:00,33.5,15.9,29.75,WNW,301,3.0,12.0,48,0.00,,---,0.00,VWS V14.01,2013-01-29 18:45:00,
2013-01-29 11:50:00,34.3,16.2,29.75,North,5,2.0,7.0,47,0.00,,---,0.00,VWS V14.01,2013-01-29 18:50:00,
2013-01-29 11:55:00,33.9,14.3,29.75,WNW,292,4.0,11.0,44,0.00,,---,0.00,VWS V14.01,2013-01-29 18:55:00,
2013-01-29 12:00:00,33.1,14.6,29.75,NW,311,8.0,9.0,46,0.00,,---,0.00,VWS V14.01,2013-01-29 19:00:00,
2013-01-29 12:05:00,32.5,15.0,29.75,NNW,342,4.0,9.0,48,0.00,,---,0.00,VWS V14.01,2013-01-29 19:05:00,
2013-01-29 12:10:00,32.5,15.0,29.75,NNW,346,8.0,10.0,48,0.00,,---,0.00,VWS V14.01,2013-01-29 19:10:00,
2013-01-29 12:15:00,32.3,14.3,29.74,NNW,329,4.0,7.0,47,0.00,,---,0.00,VWS V14.01,2013-01-29 19:15:00,
2013-01-29 12:20:00,32.4,13.9,29.74,North,5,3.0,11.0,46,0.00,,---,0.00,VWS V14.01,2013-01-29 19:20:00,
2013-01-29 12:25:00,32.6,12.6,29.74,NW,307,3.0,8.0,43,0.00,,---,0.00,VWS V14.01,2013-01-29 19:25:00,
2013-01-29 12:30:00,32.5,13.0,29.74,NNW,328,6.0,6.0,44,0.00,,---,0.00,VWS V14.01,2013-01-29 19:30:00,
2013-01-29 12:35:00,33.2,12.6,29.74,North,9,11.0,13.0,42,0.00,,---,0.00,VWS V14.01,2013-01-29 19:35:00,
2013-01-29 12:40:00,33.5,12.3,29.74,NW,309,5.0,12.0,41,0.00,,---,0.00,VWS V14.01,2013-01-29 19:40:00,
2013-01-29 12:45:00,32.5,11.4,29.74,NNW,339,4.0,11.0,41,0.00,,---,0.00,VWS V14.01,2013-01-29 19:45:00,
2013-01-29 12:50:00,32.5,12.0,29.74,WSW,252,4.0,6.0,42,0.00,,---,0.00,VWS V14.01,2013-01-29 19:50:00,
2013-01-29 12:55:00,33.2,12.1,29.74,NNW,347,7.0,12.0,41,0.00,,---,0.00,VWS V14.01,2013-01-29 19:55:00,
2013-01-29 12:58:00,33.5,11.8,29.74,NNW,346,8.0,13.0,40,0.00,,---,0.00,VWS V14.01,2013-01-29 19:58:00,
2013-01-29 13:00:00,33.5,11.2,29.74,NNW,329,6.0,13.0,39,0.00,,---,0.00,VWS V14.01,2013-01-29 20:00:00,
2013-01-29 13:03:00,33.8,10.9,29.74,West,279,4.0,12.0,38,0.00,,---,0.00,VWS V14.01,2013-01-29 20:03:00,
2013-01-29 13:05:00,33.8,10.9,29.74,NNW,327,13.0,13.0,38,0.00,,---,0.00,VWS V14.01,2013-01-29 20:05:00,
2013-01-29 13:08:00,34.2,10.7,29.74,NW,310,4.0,20.0,37,0.00,,---,0.00,VWS V14.01,2013-01-29 20:08:00,
2013-01-29 13:10:00,34.3,10.1,29.74,NW,317,10.0,20.0,36,0.00,,---,0.00,VWS V14.01,2013-01-29 20:10:00,
2013-01-29 13:13:00,34.3,10.1,29.74,SW,223,4.0,10.0,36,0.00,,---,0.00,VWS V14.01,2013-01-29 20:13:00,
2013-01-29 13:15:00,34.3,10.1,29.74,NW,313,5.0,10.0,36,0.00,,---,0.00,VWS V14.01,2013-01-29 20:15:00,
2013-01-29 13:18:00,34.6,9.8,29.74,WNW,290,5.0,8.0,35,0.00,,---,0.00,VWS V14.01,2013-01-29 20:18:00,
2013-01-29 13:23:00,34.5,9.0,29.74,NW,326,5.0,9.0,34,0.00,,---,0.00,VWS V14.01,2013-01-29 20:23:00,
2013-01-29 13:25:00,34.2,8.8,29.74,NNE,15,5.0,9.0,34,0.00,,---,0.00,VWS V14.01,2013-01-29 20:25:00,
2013-01-29 13:28:00,33.6,9.5,29.75,WNW,302,6.0,14.0,36,0.00,,---,0.00,VWS V14.01,2013-01-29 20:28:00,
2013-01-29 13:33:00,33.1,9.7,29.75,NNW,344,10.0,12.0,37,0.00,,---,0.00,VWS V14.01,2013-01-29 20:33:00,
2013-01-29 13:35:00,33.0,9.6,29.75,NNE,13,10.0,12.0,37,0.00,,---,0.00,VWS V14.01,2013-01-29 20:35:00,
2013-01-29 13:38:00,32.6,8.6,29.75,NW,317,7.0,11.0,36,0.00,,---,0.00,VWS V14.01,2013-01-29 20:38:00,
2013-01-29 13:40:00,32.5,8.5,29.75,NW,306,3.0,11.0,36,0.00,,---,0.00,VWS V14.01,2013-01-29 20:40:00,
2013-01-29 13:43:00,32.7,8.7,29.75,North,360,5.0,11.0,36,0.00,,---,0.00,VWS V14.01,2013-01-29 20:43:00,
2013-01-29 13:45:00,32.8,8.8,29.75,NNE,15,6.0,11.0,36,0.00,,---,0.00,VWS V14.01,2013-01-29 20:45:00,
2013-01-29 13:48:00,32.8,8.2,29.75,North,355,7.0,18.0,35,0.00,,---,0.00,VWS V14.01,2013-01-29 20:48:00,
2013-01-29 13:50:00,32.8,8.2,29.75,WNW,288,5.0,18.0,35,0.00,,---,0.00,VWS V14.01,2013-01-29 20:50:00,
2013-01-29 13:53:00,32.6,7.3,29.75,WNW,298,5.0,13.0,34,0.00,,---,0.00,VWS V14.01,2013-01-29 20:53:00,
2013-01-29 13:55:00,32.6,7.3,29.75,North,355,8.0,13.0,34,0.00,,---,0.00,VWS V14.01,2013-01-29 20:55:00,
2013-01-29 13:58:00,32.6,7.3,29.75,NW,319,17.0,17.0,34,0.00,,---,0.00,VWS V14.01,2013-01-29 20:58:00,
2013-01-29 14:00:00,32.6,7.3,29.75,NW,304,5.0,17.0,34,0.00,,---,0.00,VWS V14.01,2013-01-29 21:00:00,
2013-01-29 14:03:00,32.7,7.4,29.75,North,9,6.0,14.0,34,0.00,,---,0.00,VWS V14.01,2013-01-29 21:03:00,
2013-01-29 14:05:00,32.7,7.4,29.75,NNW,343,6.0,14.0,34,0.00,,---,0.00,VWS V14.01,2013-01-29 21:05:00,
2013-01-29 14:08:00,32.8,7.5,29.75,NW,325,4.0,11.0,34,0.00,,---,0.00,VWS V14.01,2013-01-29 21:08:00,
2013-01-29 14:10:00,32.8,7.5,29.75,NW,306,9.0,11.0,34,0.00,,---,0.00,VWS V14.01,2013-01-29 21:10:00,
2013-01-29 14:13:00,32.9,7.6,29.76,NNW,348,7.0,10.0,34,0.00,,---,0.00,VWS V14.01,2013-01-29 21:13:00,
2013-01-29 14:15:00,33.0,7.7,29.76,WSW,246,4.0,10.0,34,0.00,,---,0.00,VWS V14.01,2013-01-29 21:15:00,
2013-01-29 14:18:00,33.0,7.1,29.76,NNW,336,14.0,14.0,33,0.00,,---,0.00,VWS V14.01,2013-01-29 21:18:00,
2013-01-29 14:20:00,33.0,7.7,29.76,North,349,9.0,14.0,34,0.00,,---,0.00,VWS V14.01,2013-01-29 21:20:00,
2013-01-29 14:23:00,33.1,7.1,29.76,NNW,346,3.0,14.0,33,0.00,,---,0.00,VWS V14.01,2013-01-29 21:23:00,
2013-01-29 14:25:00,33.2,7.2,29.76,NNW,347,6.0,14.0,33,0.00,,---,0.00,VWS V14.01,2013-01-29 21:25:00,
2013-01-29 14:28:00,33.6,7.6,29.76,NNW,334,7.0,16.0,33,0.00,,---,0.00,VWS V14.01,2013-01-29 21:28:00,
2013-01-29 14:30:00,33.6,6.2,29.76,NW,319,6.0,16.0,31,0.00,,---,0.00,VWS V14.01,2013-01-29 21:30:00,
2013-01-29 14:33:00,33.6,6.2,29.77,NNW,338,3.0,13.0,31,0.00,,---,0.00,VWS V14.01,2013-01-29 21:33:00,
2013-01-29 14:35:00,33.8,7.1,29.76,NNW,334,6.0,13.0,32,0.00,,---,0.00,VWS V14.01,2013-01-29 21:35:00,
2013-01-29 14:38:00,34.7,7.2,29.77,WNW,292,3.0,10.0,31,0.00,,---,0.00,VWS V14.01,2013-01-29 21:38:00,
2013-01-29 14:40:00,34.8,6.5,29.76,NNW,330,8.0,10.0,30,0.00,,---,0.00,VWS V14.01,2013-01-29 21:40:00,
2013-01-29 14:43:00,34.4,5.4,29.76,South,191,7.0,13.0,29,0.00,,---,0.00,VWS V14.01,2013-01-29 21:43:00,
2013-01-29 14:45:00,34.4,5.4,29.76,WSW,242,4.0,13.0,29,0.00,,---,0.00,VWS V14.01,2013-01-29 21:45:00,
2013-01-29 14:48:00,34.3,5.4,29.76,NW,324,8.0,8.0,29,0.00,,---,0.00,VWS V14.01,2013-01-29 21:48:00,
2013-01-29 14:50:00,34.3,5.4,29.76,WNW,299,9.0,9.0,29,0.00,,---,0.00,VWS V14.01,2013-01-29 21:50:00,
2013-01-29 14:53:00,33.7,5.6,29.77,NW,311,3.0,11.0,30,0.00,,---,0.00,VWS V14.01,2013-01-29 21:53:00,
2013-01-29 14:55:00,33.7,5.6,29.77,WNW,293,5.0,12.0,30,0.00,,---,0.00,VWS V14.01,2013-01-29 21:55:00,
2013-01-29 14:58:00,34.1,5.9,29.76,WNW,282,7.0,8.0,30,0.00,,---,0.00,VWS V14.01,2013-01-29 21:58:00,
2013-01-29 15:00:00,34.3,6.1,29.76,WNW,289,10.0,10.0,30,0.00,,---,0.00,VWS V14.01,2013-01-29 22:00:00,
2013-01-29 15:03:00,34.8,5.0,29.77,NNW,337,8.0,15.0,28,0.00,,---,0.00,VWS V14.01,2013-01-29 22:03:00,
2013-01-29 15:05:00,34.7,4.2,29.77,West,263,13.0,16.0,27,0.00,,---,0.00,VWS V14.01,2013-01-29 22:05:00,
2013-01-29 15:08:00,34.3,3.8,29.77,WNW,282,5.0,13.0,27,0.00,,---,0.00,VWS V14.01,2013-01-29 22:08:00,
2013-01-29 15:10:00,34.3,3.8,29.77,NW,319,6.0,13.0,27,0.00,,---,0.00,VWS V14.01,2013-01-29 22:10:00,
2013-01-29 15:13:00,34.6,4.9,29.78,WNW,298,5.0,11.0,28,0.00,,---,0.00,VWS V14.01,2013-01-29 22:13:00,
2013-01-29 15:15:00,34.7,4.9,29.77,WNW,300,14.0,14.0,28,0.00,,---,0.00,VWS V14.01,2013-01-29 22:15:00,
2013-01-29 15:18:00,34.9,5.1,29.78,NW,311,8.0,14.0,28,0.00,,---,0.00,VWS V14.01,2013-01-29 22:18:00,
2013-01-29 15:20:00,34.9,5.1,29.78,WNW,284,7.0,14.0,28,0.00,,---,0.00,VWS V14.01,2013-01-29 22:20:00,
2013-01-29 15:23:00,35.3,5.5,29.78,NNW,328,5.0,12.0,28,0.00,,---,0.00,VWS V14.01,2013-01-29 22:23:00,
2013-01-29 15:25:00,35.4,4.8,29.78,NW,321,4.0,12.0,27,0.00,,---,0.00,VWS V14.01,2013-01-29 22:25:00,
2013-01-29 15:28:00,35.1,4.5,29.79,WNW,288,4.0,14.0,27,0.00,,---,0.00,VWS V14.01,2013-01-29 22:28:00,
2013-01-29 15:30:00,35.0,5.2,29.78,SSW,213,5.0,14.0,28,0.00,,---,0.00,VWS V14.01,2013-01-29 22:30:00,
2013-01-29 15:33:00,35.1,6.1,29.78,NNW,335,6.0,15.0,29,0.00,,---,0.00,VWS V14.01,2013-01-29 22:33:00,
2013-01-29 15:35:00,35.1,6.1,29.78,NW,311,5.0,15.0,29,0.00,,---,0.00,VWS V14.01,2013-01-29 22:35:00,
2013-01-29 15:38:00,35.1,5.3,29.78,North,355,8.0,12.0,28,0.00,,---,0.00,VWS V14.01,2013-01-29 22:38:00,
2013-01-29 15:43:00,35.1,4.5,29.79,WNW,299,3.0,16.0,27,0.00,,---,0.00,VWS V14.01,2013-01-29 22:43:00,
2013-01-29 15:45:00,35.3,4.7,29.79,WNW,292,4.0,16.0,27,0.00,,---,0.00,VWS V14.01,2013-01-29 22:45:00,
2013-01-29 15:48:00,35.8,5.1,29.79,NNW,344,16.0,16.0,27,0.00,,---,0.00,VWS V14.01,2013-01-29 22:48:00,
2013-01-29 15:50:00,35.8,4.3,29.79,NW,323,10.0,16.0,26,0.00,,---,0.00,VWS V14.01,2013-01-29 22:50:00,
2013-01-29 15:53:00,35.3,3.0,29.79,WNW,298,13.0,22.0,25,0.00,,---,0.00,VWS V14.01,2013-01-29 22:53:00,
2013-01-29 15:55:00,35.2,2.9,29.79,NW,317,6.0,22.0,25,0.00,,---,0.00,VWS V14.01,2013-01-29 22:55:00,
2013-01-29 15:58:00,35.4,3.9,29.80,NNW,333,7.0,12.0,26,0.00,,---,0.00,VWS V14.01,2013-01-29 22:58:00,
2013-01-29 16:00:00,35.4,3.1,29.80,WSW,245,10.0,12.0,25,0.00,,---,0.00,VWS V14.01,2013-01-29 23:00:00,
2013-01-29 16:03:00,35.1,2.8,29.80,WNW,285,7.0,13.0,25,0.00,,---,0.00,VWS V14.01,2013-01-29 23:03:00,
2013-01-29 16:05:00,35.1,3.7,29.80,North,355,12.0,13.0,26,0.00,,---,0.00,VWS V14.01,2013-01-29 23:05:00,
2013-01-29 16:08:00,34.8,2.6,29.81,NNW,339,9.0,17.0,25,0.00,,---,0.00,VWS V14.01,2013-01-29 23:08:00,
2013-01-29 16:13:00,34.6,3.2,29.81,West,275,8.0,12.0,26,0.00,,---,0.00,VWS V14.01,2013-01-29 23:13:00,
2013-01-29 16:15:00,34.6,4.1,29.81,NW,311,5.0,12.0,27,0.00,,---,0.00,VWS V14.01,2013-01-29 23:15:00,
2013-01-29 16:18:00,34.1,4.4,29.82,NNW,330,4.0,15.0,28,0.00,,---,0.00,VWS V14.01,2013-01-29 23:18:00,
2013-01-29 16:20:00,34.1,4.4,29.81,NW,321,7.0,15.0,28,0.00,,---,0.00,VWS V14.01,2013-01-29 23:20:00,
2013-01-29 16:23:00,34.1,5.2,29.82,WNW,282,9.0,13.0,29,0.00,,---,0.00,VWS V14.01,2013-01-29 23:23:00,
2013-01-29 16:25:00,34.1,5.2,29.82,WNW,294,8.0,13.0,29,0.00,,---,0.00,VWS V14.01,2013-01-29 23:25:00,
2013-01-29 16:28:00,33.6,4.8,29.82,NNW,333,6.0,14.0,29,0.00,,---,0.00,VWS V14.01,2013-01-29 23:28:00,
2013-01-29 16:30:00,33.6,5.5,29.82,NW,319,5.0,14.0,30,0.00,,---,0.00,VWS V14.01,2013-01-29 23:30:00,
2013-01-29 16:33:00,33.7,5.6,29.82,NNE,19,14.0,20.0,30,0.00,,---,0.00,VWS V14.01,2013-01-29 23:33:00,
2013-01-29 16:35:00,33.7,6.3,29.83,WNW,300,8.0,20.0,31,0.00,,---,0.00,VWS V14.01,2013-01-29 23:35:00,
2013-01-29 16:38:00,33.5,6.1,29.83,NW,322,10.0,15.0,31,0.00,,---,0.00,VWS V14.01,2013-01-29 23:38:00,
2013-01-29 16:40:00,33.4,6.7,29.83,NNW,332,8.0,15.0,32,0.00,,---,0.00,VWS V14.01,2013-01-29 23:40:00,
2013-01-29 16:43:00,33.4,6.7,29.83,SSE,159,4.0,15.0,32,0.00,,---,0.00,VWS V14.01,2013-01-29 23:43:00,
2013-01-29 16:45:00,33.5,6.8,29.83,NE,49,4.0,15.0,32,0.00,,---,0.00,VWS V14.01,2013-01-29 23:45:00,
2013-01-29 16:48:00,33.8,7.1,29.83,SE,144,4.0,12.0,32,0.00,,---,0.00,VWS V14.01,2013-01-29 23:48:00,
2013-01-29 16:50:00,33.8,6.4,29.84,NW,306,6.0,14.0,31,0.00,,---,0.00,VWS V14.01,2013-01-29 23:50:00,
2013-01-29 16:53:00,33.5,6.1,29.84,WNW,300,10.0,12.0,31,0.00,,---,0.00,VWS V14.01,2013-01-29 23:53:00,
2013-01-29 16:55:00,33.5,6.1,29.84,WNW,286,5.0,15.0,31,0.00,,---,0.00,VWS V14.01,2013-01-29 23:55:00,
2013-01-29 16:58:00,33.4,6.0,29.84,NNW,346,7.0,13.0,31,0.00,,---,0.00,VWS V14.01,2013-01-29 23:58:00,
2013-01-29 17:00:00,33.4,6.0,29.84,NW,315,5.0,13.0,31,0.00,,---,0.00,VWS V14.01,2013-01-30 00:00:00,
2013-01-29 17:03:00,33.2,6.6,29.84,NW,308,8.0,18.0,32,0.00,,---,0.00,VWS V14.01,2013-01-30 00:03:00,
2013-01-29 17:05:00,33.2,6.6,29.85,WNW,287,7.0,18.0,32,0.00,,---,0.00,VWS V14.01,2013-01-30 00:05:00,
2013-01-29 17:08:00,33.1,6.5,29.85,WNW,284,6.0,14.0,32,0.00,,---,0.00,VWS V14.01,2013-01-30 00:08:00,
2013-01-29 17:10:00,33.1,6.5,29.85,WNW,299,8.0,14.0,32,0.00,,---,0.00,VWS V14.01,2013-01-30 00:10:00,
2013-01-29 17:13:00,33.0,7.1,29.85,NNW,344,5.0,11.0,33,0.00,,---,0.00,VWS V14.01,2013-01-30 00:13:00,
2013-01-29 17:15:00,32.9,7.0,29.85,NNW,333,6.0,11.0,33,0.00,,---,0.00,VWS V14.01,2013-01-30 00:15:00,
2013-01-29 17:18:00,32.8,7.5,29.86,WNW,298,6.0,9.0,34,0.00,,---,0.00,VWS V14.01,2013-01-30 00:18:00,
2013-01-29 17:20:00,32.7,7.4,29.86,NNW,329,7.0,9.0,34,0.00,,---,0.00,VWS V14.01,2013-01-30 00:20:00,
2013-01-29 17:23:00,32.5,7.9,29.86,WNW,286,7.0,12.0,35,0.00,,---,0.00,VWS V14.01,2013-01-30 00:23:00,
2013-01-29 17:25:00,32.5,7.9,29.86,NW,317,5.0,12.0,35,0.00,,---,0.00,VWS V14.01,2013-01-30 00:25:00,
2013-01-29 17:28:00,32.4,8.4,29.86,WNW,286,2.0,9.0,36,0.00,,---,0.00,VWS V14.01,2013-01-30 00:28:00,
2013-01-29 17:30:00,32.4,8.4,29.86,NNW,329,4.0,9.0,36,0.00,,---,0.00,VWS V14.01,2013-01-30 00:30:00,
2013-01-29 17:33:00,32.3,8.4,29.87,WNW,286,7.0,11.0,36,0.00,,---,0.00,VWS V14.01,2013-01-30 00:33:00,
2013-01-29 17:35:00,32.3,8.4,29.87,WNW,294,1.0,11.0,36,0.00,,---,0.00,VWS V14.01,2013-01-30 00:35:00,
2013-01-29 17:38:00,32.2,8.9,29.87,WNW,295,1.0,6.0,37,0.00,,---,0.00,VWS V14.01,2013-01-30 00:38:00,
2013-01-29 17:40:00,32.1,8.8,29.87,NNW,327,2.0,6.0,37,0.00,,---,0.00,VWS V14.01,2013-01-30 00:40:00,
2013-01-29 17:43:00,32.0,8.7,29.87,WNW,298,3.0,8.0,37,0.00,,---,0.00,VWS V14.01,2013-01-30 00:43:00,
2013-01-29 17:45:00,32.0,8.7,29.88,West,262,4.0,8.0,37,0.00,,---,0.00,VWS V14.01,2013-01-30 00:45:00,
2013-01-29 17:48:00,31.9,9.2,29.88,WSW,246,5.0,8.0,38,0.00,,---,0.00,VWS V14.01,2013-01-30 00:48:00,
2013-01-29 17:50:00,31.9,9.2,29.88,NW,315,2.0,8.0,38,0.00,,---,0.00,VWS V14.01,2013-01-30 00:50:00,
2013-01-29 17:53:00,31.8,9.1,29.88,NW,313,3.0,8.0,38,0.00,,---,0.00,VWS V14.01,2013-01-30 00:53:00,
2013-01-29 17:55:00,31.7,9.0,29.88,NW,314,3.0,8.0,38,0.00,,---,0.00,VWS V14.01,2013-01-30 00:55:00,
2013-01-29 17:58:00,31.7,9.0,29.89,NNW,334,3.0,9.0,38,0.00,,---,0.00,VWS V14.01,2013-01-30 00:58:00,
2013-01-29 18:00:00,31.7,9.0,29.89,NNW,344,7.0,9.0,38,0.00,,---,0.00,VWS V14.01,2013-01-30 01:00:00,
2013-01-29 18:03:00,31.6,8.9,29.89,North,5,8.0,9.0,38,0.00,,---,0.00,VWS V14.01,2013-01-30 01:03:00,
2013-01-29 18:05:00,31.6,8.9,29.89,North,355,7.0,10.0,38,0.00,,---,0.00,VWS V14.01,2013-01-30 01:05:00,
2013-01-29 18:08:00,31.5,8.8,29.89,NNW,336,5.0,7.0,38,0.00,,---,0.00,VWS V14.01,2013-01-30 01:08:00,
2013-01-29 18:10:00,31.5,8.8,29.89,NW,305,4.0,10.0,38,0.00,,---,0.00,VWS V14.01,2013-01-30 01:10:00,
2013-01-29 18:13:00,31.5,8.8,29.90,West,281,4.0,7.0,38,0.00,,---,0.00,VWS V14.01,2013-01-30 01:13:00,
2013-01-29 18:15:00,31.5,8.8,29.90,NW,309,3.0,7.0,38,0.00,,---,0.00,VWS V14.01,2013-01-30 01:15:00,
2013-01-29 18:18:00,31.5,9.4,29.90,NW,312,6.0,6.0,39,0.00,,---,0.00,VWS V14.01,2013-01-30 01:18:00,
2013-01-29 18:20:00,31.4,8.7,29.90,NW,317,1.0,7.0,38,0.00,,---,0.00,VWS V14.01,2013-01-30 01:20:00,
2013-01-29 18:23:00,31.4,9.3,29.90,NW,323,9.0,9.0,39,0.00,,---,0.00,VWS V14.01,2013-01-30 01:23:00,
2013-01-29 18:25:00,31.4,9.3,29.90,NNW,327,2.0,10.0,39,0.00,,---,0.00,VWS V14.01,2013-01-30 01:25:00,
2013-01-29 18:28:00,31.2,9.7,29.91,NNW,339,2.0,3.0,40,0.00,,---,0.00,VWS V14.01,2013-01-30 01:28:00,
2013-01-29 18:30:00,31.2,9.7,29.90,NW,319,2.0,3.0,40,0.00,,---,0.00,VWS V14.01,2013-01-30 01:30:00,
2013-01-29 18:33:00,31.2,9.7,29.91,NW,308,4.0,7.0,40,0.00,,---,0.00,VWS V14.01,2013-01-30 01:33:00,
2013-01-29 18:35:00,31.1,9.6,29.91,West,260,8.0,8.0,40,0.00,,---,0.00,VWS V14.01,2013-01-30 01:35:00,
2013-01-29 18:38:00,31.1,9.6,29.91,WNW,284,7.0,12.0,40,0.00,,---,0.00,VWS V14.01,2013-01-30 01:38:00,
2013-01-29 18:40:00,31.1,9.6,29.91,North,11,4.0,12.0,40,0.00,,---,0.00,VWS V14.01,2013-01-30 01:40:00,
2013-01-29 18:43:00,31.1,10.2,29.92,WNW,296,9.0,14.0,41,0.00,,---,0.00,VWS V14.01,2013-01-30 01:43:00,
2013-01-29 18:48:00,31.1,10.2,29.92,NNE,22,7.0,12.0,41,0.00,,---,0.00,VWS V14.01,2013-01-30 01:48:00,
2013-01-29 18:50:00,31.1,10.2,29.92,WNW,295,5.0,12.0,41,0.00,,---,0.00,VWS V14.01,2013-01-30 01:50:00,
2013-01-29 18:53:00,31.0,10.6,29.92,NW,322,3.0,7.0,42,0.00,,---,0.00,VWS V14.01,2013-01-30 01:53:00,
2013-01-29 18:55:00,31.0,10.6,29.92,NNW,334,2.0,7.0,42,0.00,,---,0.00,VWS V14.01,2013-01-30 01:55:00,
2013-01-29 18:58:00,30.9,10.5,29.93,NW,306,3.0,11.0,42,0.00,,---,0.00,VWS V14.01,2013-01-30 01:58:00,
2013-01-29 19:00:00,30.9,10.5,29.93,West,281,2.0,11.0,42,0.00,,---,0.00,VWS V14.01,2013-01-30 02:00:00,
2013-01-29 19:03:00,30.8,10.4,29.93,NNW,327,3.0,8.0,42,0.00,,---,0.00,VWS V14.01,2013-01-30 02:03:00,
2013-01-29 19:05:00,30.8,10.4,29.93,WNW,299,6.0,8.0,42,0.00,,---,0.00,VWS V14.01,2013-01-30 02:05:00,
2013-01-29 19:08:00,30.7,10.3,29.94,NNW,340,3.0,7.0,42,0.00,,---,0.00,VWS V14.01,2013-01-30 02:08:00,
2013-01-29 19:10:00,30.7,10.3,29.93,NW,321,9.0,9.0,42,0.00,,---,0.00,VWS V14.01,2013-01-30 02:10:00,
2013-01-29 19:13:00,30.7,10.3,29.94,NNW,341,7.0,12.0,42,0.00,,---,0.00,VWS V14.01,2013-01-30 02:13:00,
2013-01-29 19:15:00,30.7,10.3,29.94,West,265,6.0,12.0,42,0.00,,---,0.00,VWS V14.01,2013-01-30 02:15:00,
2013-01-29 19:18:00,30.6,10.8,29.94,NNE,19,7.0,11.0,43,0.00,,---,0.00,VWS V14.01,2013-01-30 02:18:00,
2013-01-29 19:20:00,30.6,10.8,29.94,NNW,329,8.0,12.0,43,0.00,,---,0.00,VWS V14.01,2013-01-30 02:20:00,
2013-01-29 19:23:00,30.5,10.7,29.94,NNW,332,5.0,13.0,43,0.00,,---,0.00,VWS V14.01,2013-01-30 02:23:00,
2013-01-29 19:25:00,30.5,10.7,29.94,NNW,341,6.0,13.0,43,0.00,,---,0.00,VWS V14.01,2013-01-30 02:25:00,
2013-01-29 19:28:00,30.5,10.7,29.95,NNW,341,4.0,6.0,43,0.00,,---,0.00,VWS V14.01,2013-01-30 02:28:00,
2013-01-29 19:30:00,30.5,10.7,29.95,NNW,338,3.0,7.0,43,0.00,,---,0.00,VWS V14.01,2013-01-30 02:30:00,
2013-01-29 19:33:00,30.4,10.6,29.95,North,351,3.0,11.0,43,0.00,,---,0.00,VWS V14.01,2013-01-30 02:33:00,
2013-01-29 19:35:00,30.4,10.6,29.95,NNW,338,5.0,11.0,43,0.00,,---,0.00,VWS V14.01,2013-01-30 02:35:00,
2013-01-29 19:38:00,30.3,10.5,29.95,NNW,345,11.0,11.0,43,0.00,,---,0.00,VWS V14.01,2013-01-30 02:38:00,
2013-01-29 19:40:00,30.3,10.5,29.95,NNW,336,7.0,11.0,43,0.00,,---,0.00,VWS V14.01,2013-01-30 02:40:00,
2013-01-29 19:43:00,30.3,11.0,29.95,NNW,346,2.0,9.0,44,0.00,,---,0.00,VWS V14.01,2013-01-30 02:43:00,
2013-01-29 19:48:00,30.2,10.9,29.96,NW,325,2.0,7.0,44,0.00,,---,0.00,VWS V14.01,2013-01-30 02:48:00,
2013-01-29 19:50:00,30.2,10.9,29.96,NNW,332,3.0,10.0,44,0.00,,---,0.00,VWS V14.01,2013-01-30 02:50:00,
2013-01-29 19:53:00,30.2,10.9,29.96,NNW,327,0.0,8.0,44,0.00,,---,0.00,VWS V14.01,2013-01-30 02:53:00,
2013-01-29 19:55:00,30.1,10.8,29.96,North,355,3.0,8.0,44,0.00,,---,0.00,VWS V14.01,2013-01-30 02:55:00,
2013-01-29 19:58:00,30.1,11.3,29.96,NNW,343,5.0,17.0,45,0.00,,---,0.00,VWS V14.01,2013-01-30 02:58:00,
2013-01-29 20:00:00,30.0,11.2,29.96,NNE,24,2.0,17.0,45,0.00,,---,0.00,VWS V14.01,2013-01-30 03:00:00,
2013-01-29 20:03:00,30.0,11.2,29.96,NNW,335,9.0,9.0,45,0.00,,---,0.00,VWS V14.01,2013-01-30 03:03:00,
2013-01-29 20:05:00,30.0,11.2,29.96,North,5,4.0,9.0,45,0.00,,---,0.00,VWS V14.01,2013-01-30 03:05:00,
2013-01-29 20:08:00,30.0,11.2,29.96,North,355,4.0,9.0,45,0.00,,---,0.00,VWS V14.01,2013-01-30 03:08:00,
2013-01-29 20:10:00,30.0,11.2,29.96,NE,38,2.0,9.0,45,0.00,,---,0.00,VWS V14.01,2013-01-30 03:10:00,
2013-01-29 20:13:00,30.0,11.7,29.97,NNE,26,2.0,5.0,46,0.00,,---,0.00,VWS V14.01,2013-01-30 03:13:00,
2013-01-29 20:15:00,30.0,11.7,29.97,North,360,2.0,5.0,46,0.00,,---,0.00,VWS V14.01,2013-01-30 03:15:00,
2013-01-29 20:18:00,29.9,11.6,29.97,NNE,23,2.0,5.0,46,0.00,,---,0.00,VWS V14.01,2013-01-30 03:18:00,
2013-01-29 20:20:00,29.9,11.6,29.97,NE,49,1.0,5.0,46,0.00,,---,0.00,VWS V14.01,2013-01-30 03:20:00,
2013-01-29 20:23:00,29.9,12.1,29.97,NNE,32,1.0,5.0,47,0.00,,---,0.00,VWS V14.01,2013-01-30 03:23:00,
2013-01-29 20:25:00,29.9,12.1,29.97,NNE,28,2.0,5.0,47,0.00,,---,0.00,VWS V14.01,2013-01-30 03:25:00,
2013-01-29 20:28:00,29.9,12.1,29.97,NNE,28,4.0,5.0,47,0.00,,---,0.00,VWS V14.01,2013-01-30 03:28:00,
2013-01-29 20:33:00,29.9,12.1,29.98,NNE,24,1.0,9.0,47,0.00,,---,0.00,VWS V14.01,2013-01-30 03:33:00,
2013-01-29 20:35:00,29.8,12.0,29.98,NNW,340,2.0,9.0,47,0.00,,---,0.00,VWS V14.01,2013-01-30 03:35:00,
2013-01-29 20:38:00,29.8,12.0,29.98,NNE,27,1.0,6.0,47,0.00,,---,0.00,VWS V14.01,2013-01-30 03:38:00,
2013-01-29 20:40:00,29.8,12.0,29.98,NE,38,2.0,6.0,47,0.00,,---,0.00,VWS V14.01,2013-01-30 03:40:00,
2013-01-29 20:43:00,29.8,12.0,29.99,NNE,25,1.0,5.0,47,0.00,,---,0.00,VWS V14.01,2013-01-30 03:43:00,
2013-01-29 20:45:00,29.8,12.0,29.99,North,11,4.0,6.0,47,0.00,,---,0.00,VWS V14.01,2013-01-30 03:45:00,
2013-01-29 20:48:00,29.8,12.5,29.99,NNE,25,3.0,6.0,48,0.00,,---,0.00,VWS V14.01,2013-01-30 03:48:00,
2013-01-29 20:50:00,29.8,12.5,29.99,North,355,1.0,6.0,48,0.00,,---,0.00,VWS V14.01,2013-01-30 03:50:00,
2013-01-29 20:53:00,29.8,12.5,29.99,NNW,342,2.0,6.0,48,0.00,,---,0.00,VWS V14.01,2013-01-30 03:53:00,
2013-01-29 20:55:00,29.8,12.5,29.99,NNE,19,4.0,6.0,48,0.00,,---,0.00,VWS V14.01,2013-01-30 03:55:00,
2013-01-29 20:57:00,29.8,12.5,29.99,North,355,3.0,7.0,48,0.00,,---,0.00,VWS V14.01,2013-01-30 03:57:00,
2013-01-29 21:00:00,29.8,12.5,29.99,North,355,2.0,7.0,48,0.00,,---,0.00,VWS V14.01,2013-01-30 04:00:00,
2013-01-29 21:02:00,29.8,13.0,30.00,NE,39,1.0,7.0,49,0.00,,---,0.00,VWS V14.01,2013-01-30 04:02:00,
2013-01-29 21:05:00,29.7,12.9,30.00,NNE,13,0.0,7.0,49,0.00,,---,0.00,VWS V14.01,2013-01-30 04:05:00,
2013-01-29 21:07:00,29.7,12.9,30.00,North,351,4.0,5.0,49,0.00,,---,0.00,VWS V14.01,2013-01-30 04:07:00,
2013-01-29 21:10:00,29.7,12.9,30.00,NNW,336,1.0,5.0,49,0.00,,---,0.00,VWS V14.01,2013-01-30 04:10:00,
2013-01-29 21:12:00,29.6,12.8,30.00,NNW,343,0.0,4.0,49,0.00,,---,0.00,VWS V14.01,2013-01-30 04:12:00,
2013-01-29 21:15:00,29.5,12.7,30.00,NW,323,1.0,4.0,49,0.00,,---,0.00,VWS V14.01,2013-01-30 04:15:00,
2013-01-29 21:17:00,29.3,13.0,30.01,NE,53,2.0,4.0,50,0.00,,---,0.00,VWS V14.01,2013-01-30 04:17:00,
2013-01-29 21:20:00,29.3,13.0,30.00,NE,36,9.0,9.0,50,0.00,,---,0.00,VWS V14.01,2013-01-30 04:20:00,
2013-01-29 21:22:00,29.3,13.0,30.00,East,84,3.0,9.0,50,0.00,,---,0.00,VWS V14.01,2013-01-30 04:22:00,
2013-01-29 21:25:00,29.2,12.9,30.00,North,9,2.0,9.0,50,0.00,,---,0.00,VWS V14.01,2013-01-30 04:25:00,
2013-01-29 21:27:00,29.1,12.8,30.01,NNE,27,1.0,6.0,50,0.00,,---,0.00,VWS V14.01,2013-01-30 04:27:00,
2013-01-29 21:30:00,29.1,12.8,30.01,ENE,61,2.0,6.0,50,0.00,,---,0.00,VWS V14.01,2013-01-30 04:30:00,
2013-01-29 21:32:00,29.0,12.7,30.01,NNE,29,2.0,6.0,50,0.00,,---,0.00,VWS V14.01,2013-01-30 04:32:00,
2013-01-29 21:35:00,29.0,12.7,30.01,NNW,328,6.0,7.0,50,0.00,,---,0.00,VWS V14.01,2013-01-30 04:35:00,
2013-01-29 21:37:00,29.0,13.1,30.01,North,360,2.0,7.0,51,0.00,,---,0.00,VWS V14.01,2013-01-30 04:37:00,
2013-01-29 21:40:00,29.0,13.1,30.01,North,360,2.0,7.0,51,0.00,,---,0.00,VWS V14.01,2013-01-30 04:40:00,
2013-01-29 21:42:00,29.0,12.7,30.01,North,5,2.0,8.0,50,0.00,,---,0.00,VWS V14.01,2013-01-30 04:42:00,
2013-01-29 21:45:00,29.0,12.7,30.02,NE,34,1.0,8.0,50,0.00,,---,0.00,VWS V14.01,2013-01-30 04:45:00,
2013-01-29 21:47:00,28.9,13.1,30.02,NNE,32,0.0,7.0,51,0.00,,---,0.00,VWS V14.01,2013-01-30 04:47:00,
2013-01-29 21:50:00,28.9,13.1,30.02,NE,48,3.0,7.0,51,0.00,,---,0.00,VWS V14.01,2013-01-30 04:50:00,
2013-01-29 21:52:00,28.8,13.0,30.01,NE,38,2.0,7.0,51,0.00,,---,0.00,VWS V14.01,2013-01-30 04:52:00,
2013-01-29 21:55:00,28.8,13.0,30.02,NE,43,5.0,7.0,51,0.00,,---,0.00,VWS V14.01,2013-01-30 04:55:00,
2013-01-29 21:57:00,28.7,12.9,30.02,NNE,13,1.0,8.0,51,0.00,,---,0.00,VWS V14.01,2013-01-30 04:57:00,
2013-01-29 22:00:00,28.7,12.9,30.02,NE,38,3.0,8.0,51,0.00,,---,0.00,VWS V14.01,2013-01-30 05:00:00,
2013-01-29 22:02:00,28.7,12.9,30.02,East,90,6.0,6.0,51,0.00,,---,0.00,VWS V14.01,2013-01-30 05:02:00,
2013-01-29 22:03:00,28.7,12.9,30.02,NNE,22,2.0,10.0,51,0.00,,---,0.00,VWS V14.01,2013-01-30 05:03:00,
2013-01-29 22:05:00,28.7,12.9,30.02,NNW,331,2.0,10.0,51,0.00,,---,0.00,VWS V14.01,2013-01-30 05:05:00,
2013-01-29 22:08:00,28.7,12.9,30.03,NNE,22,8.0,11.0,51,0.00,,---,0.00,VWS V14.01,2013-01-30 05:08:00,
2013-01-29 22:10:00,28.7,12.9,30.02,NNW,341,4.0,11.0,51,0.00,,---,0.00,VWS V14.01,2013-01-30 05:10:00,
2013-01-29 22:13:00,28.7,13.3,30.03,NNE,17,2.0,8.0,52,0.00,,---,0.00,VWS V14.01,2013-01-30 05:13:00,
2013-01-29 22:15:00,28.6,13.2,30.02,NNW,344,2.0,8.0,52,0.00,,---,0.00,VWS V14.01,2013-01-30 05:15:00,
2013-01-29 22:18:00,28.5,13.1,30.03,North,355,6.0,8.0,52,0.00,,---,0.00,VWS V14.01,2013-01-30 05:18:00,
2013-01-29 22:20:00,28.5,13.1,30.03,NNE,27,3.0,8.0,52,0.00,,---,0.00,VWS V14.01,2013-01-30 05:20:00,
2013-01-29 22:23:00,28.4,13.5,30.03,North,5,0.0,6.0,53,0.00,,---,0.00,VWS V14.01,2013-01-30 05:23:00,
2013-01-29 22:25:00,28.3,13.4,30.03,North,11,2.0,6.0,53,0.00,,---,0.00,VWS V14.01,2013-01-30 05:25:00,
2013-01-29 22:28:00,28.2,13.3,30.03,ENE,60,0.0,8.0,53,0.00,,---,0.00,VWS V14.01,2013-01-30 05:28:00,
2013-01-29 22:30:00,28.2,13.7,30.03,WNW,294,2.0,8.0,54,0.00,,---,0.00,VWS V14.01,2013-01-30 05:30:00,
2013-01-29 22:33:00,28.1,13.2,30.03,NNE,23,4.0,6.0,53,0.00,,---,0.00,VWS V14.01,2013-01-30 05:33:00,
2013-01-29 22:35:00,28.1,13.6,30.04,North,11,5.0,8.0,54,0.00,,---,0.00,VWS V14.01,2013-01-30 05:35:00,
2013-01-29 22:38:00,28.2,13.7,30.04,North,355,6.0,6.0,54,0.00,,---,0.00,VWS V14.01,2013-01-30 05:38:00,
2013-01-29 22:40:00,28.2,13.7,30.04,North,355,3.0,6.0,54,0.00,,---,0.00,VWS V14.01,2013-01-30 05:40:00,
2013-01-29 22:43:00,28.1,13.6,30.04,North,360,4.0,8.0,54,0.00,,---,0.00,VWS V14.01,2013-01-30 05:43:00,
2013-01-29 22:48:00,28.1,13.6,30.04,North,360,6.0,7.0,54,0.00,,---,0.00,VWS V14.01,2013-01-30 05:48:00,
2013-01-29 22:50:00,28.1,13.6,30.05,NNW,343,4.0,7.0,54,0.00,,---,0.00,VWS V14.01,2013-01-30 05:50:00,
2013-01-29 22:53:00,28.0,13.9,30.05,NE,43,3.0,6.0,55,0.00,,---,0.00,VWS V14.01,2013-01-30 05:53:00,
2013-01-29 22:55:00,28.0,13.9,30.05,NE,36,3.0,6.0,55,0.00,,---,0.00,VWS V14.01,2013-01-30 05:55:00,
2013-01-29 22:58:00,28.0,13.9,30.05,NE,48,3.0,6.0,55,0.00,,---,0.00,VWS V14.01,2013-01-30 05:58:00,
2013-01-29 23:00:00,28.0,13.9,30.05,NE,39,1.0,6.0,55,0.00,,---,0.00,VWS V14.01,2013-01-30 06:00:00,
2013-01-29 23:03:00,27.9,13.8,30.05,North,355,3.0,4.0,55,0.00,,---,0.00,VWS V14.01,2013-01-30 06:03:00,
2013-01-29 23:05:00,27.8,14.2,30.05,NE,35,2.0,4.0,56,0.00,,---,0.00,VWS V14.01,2013-01-30 06:05:00,
2013-01-29 23:08:00,27.8,14.2,30.06,North,355,3.0,7.0,56,0.00,,---,0.00,VWS V14.01,2013-01-30 06:08:00,
2013-01-29 23:10:00,27.8,14.2,30.06,NNE,17,0.0,7.0,56,0.00,,---,0.00,VWS V14.01,2013-01-30 06:10:00,
2013-01-29 23:13:00,27.7,14.1,30.06,NNW,329,1.0,4.0,56,0.00,,---,0.00,VWS V14.01,2013-01-30 06:13:00,
2013-01-29 23:15:00,27.7,14.1,30.06,NNE,17,2.0,4.0,56,0.00,,---,0.00,VWS V14.01,2013-01-30 06:15:00,
2013-01-29 23:18:00,27.6,14.4,30.06,NNW,342,4.0,4.0,57,0.00,,---,0.00,VWS V14.01,2013-01-30 06:18:00,
2013-01-29 23:20:00,27.6,14.4,30.06,North,355,4.0,5.0,57,0.00,,---,0.00,VWS V14.01,2013-01-30 06:20:00,
2013-01-29 23:23:00,27.5,14.3,30.07,NNW,331,0.0,4.0,57,0.00,,---,0.00,VWS V14.01,2013-01-30 06:23:00,
2013-01-29 23:25:00,27.4,14.2,30.07,NNW,337,2.0,4.0,57,0.00,,---,0.00,VWS V14.01,2013-01-30 06:25:00,
2013-01-29 23:28:00,27.2,14.4,30.07,NNW,338,0.0,4.0,58,0.00,,---,0.00,VWS V14.01,2013-01-30 06:28:00,
2013-01-29 23:30:00,27.2,14.4,30.07,NNE,17,2.0,4.0,58,0.00,,---,0.00,VWS V14.01,2013-01-30 06:30:00,
2013-01-29 23:33:00,27.1,14.3,30.07,NW,325,0.0,6.0,58,0.00,,---,0.00,VWS V14.01,2013-01-30 06:33:00,
2013-01-29 23:35:00,27.1,14.3,30.07,WNW,300,1.0,6.0,58,0.00,,---,0.00,VWS V14.01,2013-01-30 06:35:00,
2013-01-29 23:38:00,27.0,15.0,30.08,NW,323,2.0,4.0,60,0.00,,---,0.00,VWS V14.01,2013-01-30 06:38:00,
2013-01-29 23:40:00,27.1,15.1,30.08,NW,323,1.0,4.0,60,0.00,,---,0.00,VWS V14.01,2013-01-30 06:40:00,
2013-01-29 23:43:00,27.2,15.2,30.08,NW,321,5.0,10.0,60,0.00,,---,0.00,VWS V14.01,2013-01-30 06:43:00,
2013-01-29 23:45:00,27.2,15.2,30.08,NW,308,3.0,10.0,60,0.00,,---,0.00,VWS V14.01,2013-01-30 06:45:00,
2013-01-29 23:48:00,27.3,15.3,30.08,NW,315,1.0,7.0,60,0.00,,---,0.00,VWS V14.01,2013-01-30 06:48:00,
2013-01-29 23:50:00,27.3,15.3,30.08,NNW,340,4.0,7.0,60,0.00,,---,0.00,VWS V14.01,2013-01-30 06:50:00,
2013-01-29 23:53:00,27.3,15.3,30.08,NNW,348,1.0,6.0,60,0.00,,---,0.00,VWS V14.01,2013-01-30 06:53:00,
2013-01-29 23:55:00,27.2,15.2,30.08,NNW,339,1.0,6.0,60,0.00,,---,0.00,VWS V14.01,2013-01-30 06:55:00,
2013-01-29 23:58:00,27.2,15.2,30.08,NW,309,1.0,3.0,60,0.00,,---,0.00,VWS V14.01,2013-01-30 06:58:00,